Live-Position
3D-Globus wird geladen...
Über Starlink 5672
Group: 3 satellites
Beschreibung wird geladen...
Nächste Überflüge
Passes for default location (London). Set your location on the main map for personalized predictions.
Höhenverlauf
Loading altitude history...
No altitude history available
Zweizeiliger Elementsatz
1 55468U 23015V 26121.46701345 .00000204 00000-0 17302-4 0 9994
2 55468 43.0062 30.6622 0001353 268.7129 91.3568 15.26742701178790
Epoch: 1. Mai 2026 •
Age: 10 hours
Aktueller Status
Höhe 488.9 km
Geschwindigkeit 7.63 km/s
Subsatellitenpunkt 40.15°N,
32.16°W
Startdatum 2. Feb. 2023
Alter 3.2 years
Typ internet
Startgruppe
Falcon 9 •
Group 5-3 •
49 satellites
Starlink 5699
55449
Starlink 5686 55450
Starlink 5656 55451
Starlink 5683 55452
Starlink 5684 55453
Starlink 5636 55454
Starlink 5680 55455
Starlink 5058 55456
Starlink 5682 55457
Starlink 5020 55458
Starlink 5669 55459
Starlink 5678 55460
Starlink 5646 55461
Starlink 5673 55462
Starlink 5677 55463
Starlink 5676 55464
Starlink 5674 55465
Starlink 5628 55466
Starlink 5679 55467
Starlink 5681 55469
...and 28 more
Technische Details
Klassifizierung Payload
Masse 305.00 kg
Trockenmasse 290.00 kg
Gesamtmasse 305.00 kg
Länge 0.20 m
Durchmesser 2.80 m
Spannweite 9.00 m
Form Box + pan
Hersteller SPXS
Bus-Typ Starlink
Phasenstatus In Orbit
Besitzer/Staat SPXS/US
Most Searched
Loading...